�N����,����,�~����,�C��,���x,�C��,����,���ϕ���,�ő�u�ԕ���,�ő厞����,���˗�,�I�_���x,�n�����x,�ő啗���N��,DTYPE
"23/07/20","00:10",0.0,23.6,90.7,1000.8,336.1,1.2,2.0,337.8,0.00,22.0,24.9,"00:08:48",1
"23/07/20","00:20",0.0,23.4,90.6,1001.0,323.6,1.2,2.4,339.5,0.00,21.8,24.9,"00:18:24",1
"23/07/20","00:30",0.0,23.2,90.6,1001.0,318.9,1.0,1.6,337.3,0.00,21.6,24.8,"00:20:08",1
"23/07/20","00:40",0.0,23.2,90.8,1000.8,338.7,0.8,1.7,340.6,0.00,21.7,24.7,"00:38:48",1
"23/07/20","00:50",0.0,23.1,90.9,1000.8,338.6,1.1,1.8,340.1,0.00,21.6,24.9,"00:42:24",1
"23/07/20","01:00",0.0,23.0,91.1,1000.8,339.3,1.1,2.0,341.0,0.00,21.5,24.7,"00:57:04",1
"23/07/20","01:10",0.0,22.9,91.3,1000.3,337.6,1.3,2.7,309.2,0.00,21.4,24.7,"01:03:44",1
"23/07/20","01:20",0.0,22.8,91.3,1000.3,323.3,1.3,2.0,336.6,0.00,21.3,24.7,"01:12:48",1
"23/07/20","01:30",0.0,22.8,91.4,1000.5,333.3,1.3,2.1,337.1,0.00,21.4,24.8,"01:24:08",1
"23/07/20","01:40",0.0,22.6,91.6,1000.8,329.8,1.1,1.8,315.2,0.00,21.2,24.6,"01:35:36",1
"23/07/20","01:50",0.0,22.4,91.7,1000.5,303.2,0.7,1.4,330.3,0.00,21.0,24.7,"01:40:16",1
"23/07/20","02:00",0.0,22.2,91.8,1000.8,326.8,1.0,2.0,341.9,0.00,20.8,24.7,"01:54:16",1
"23/07/20","02:10",0.0,22.1,92.1,1000.5,326.0,1.0,1.7,343.9,0.00,20.8,24.6,"02:00:48",1
"23/07/20","02:20",0.0,22.0,92.3,1000.8,316.8,1.1,1.4,338.3,0.00,20.7,24.5,"02:16:32",1
"23/07/20","02:30",0.0,22.1,92.6,1000.5,320.4,1.5,2.8,335.8,0.00,20.9,24.7,"02:29:28",1
"23/07/20","02:40",0.0,22.2,92.7,1000.8,331.3,1.7,2.5,338.8,0.00,21.0,24.4,"02:30:16",1
"23/07/20","02:50",0.0,22.2,92.8,1000.8,326.2,1.7,2.7,338.9,0.00,21.0,24.4,"02:48:16",1
"23/07/20","03:00",0.0,22.3,92.8,1001.0,331.7,1.6,2.5,341.1,0.00,21.1,24.7,"02:55:36",1
"23/07/20","03:10",0.0,22.3,92.8,1000.5,336.2,1.3,2.5,344.2,0.00,21.1,24.4,"03:05:44",1
"23/07/20","03:20",0.0,22.1,92.8,1000.8,336.8,1.2,1.9,333.3,0.00,20.9,24.5,"03:11:44",1
"23/07/20","03:30",0.0,22.0,92.9,1000.8,330.7,1.3,1.9,331.9,0.00,20.8,24.4,"03:23:04",1
"23/07/20","03:40",0.0,22.0,92.9,1000.8,333.5,1.5,2.6,333.8,0.00,20.8,24.5,"03:39:04",1
"23/07/20","03:50",0.0,21.9,93.0,1000.5,337.8,1.2,1.9,351.0,0.00,20.8,24.3,"03:45:04",1
"23/07/20","04:00",0.0,22.0,93.1,1001.0,331.8,1.5,3.3,332.8,0.00,20.9,24.4,"03:58:56",1
"23/07/20","04:10",0.0,22.1,93.1,1000.8,340.6,1.2,3.1,338.7,0.00,21.0,24.3,"04:08:48",1
"23/07/20","04:20",0.0,22.0,93.1,1001.2,331.4,1.2,2.1,329.7,0.00,20.9,24.1,"04:15:04",1
"23/07/20","04:30",0.0,21.8,93.1,1001.0,326.0,1.2,1.9,325.8,0.00,20.7,24.4,"04:20:32",1
"23/07/20","04:40",0.0,21.7,93.3,1001.2,337.7,1.1,1.7,339.5,0.00,20.6,24.3,"04:37:20",1
"23/07/20","04:50",0.0,21.7,93.4,1001.0,347.8,1.2,2.2,11.6,0.00,20.6,24.2,"04:44:24",1
"23/07/20","05:00",0.0,21.7,93.5,1001.5,332.4,1.3,2.7,337.8,0.00,20.6,24.1,"04:56:16",1
"23/07/20","05:10",0.0,21.9,93.5,1001.2,342.0,1.1,2.0,339.3,0.00,20.8,24.1,"05:04:40",1
"23/07/20","05:20",0.0,21.8,93.5,1001.5,331.3,1.1,2.0,345.7,0.00,20.7,24.0,"05:13:28",1
"23/07/20","05:30",0.0,21.9,93.6,1001.2,339.8,1.2,2.0,318.9,0.00,20.9,24.0,"05:20:08",1
"23/07/20","05:40",0.0,22.2,93.5,1001.0,330.3,1.8,3.6,330.1,0.00,21.1,24.0,"05:32:32",1
"23/07/20","05:50",0.0,22.5,93.3,1001.2,334.4,1.6,2.8,340.0,0.00,21.4,24.0,"05:48:48",1
"23/07/20","06:00",0.0,22.6,93.2,1001.2,331.6,1.6,2.5,338.2,0.00,21.5,24.1,"05:52:08",1
"23/07/20","06:10",0.0,22.7,92.8,1001.9,331.8,1.8,2.5,337.1,0.01,21.5,24.1,"06:04:48",1
"23/07/20","06:20",0.0,22.9,92.5,1001.7,317.5,1.6,3.1,332.0,0.02,21.7,24.0,"06:19:20",1
"23/07/20","06:30",0.0,23.1,91.9,1001.9,335.3,2.0,3.1,348.8,0.03,21.8,24.0,"06:26:00",1
"23/07/20","06:40",0.0,23.4,91.3,1001.9,328.2,1.8,2.7,329.6,0.04,21.9,24.0,"06:32:48",1
"23/07/20","06:50",0.0,23.6,90.6,1002.2,325.7,1.7,3.3,324.0,0.04,22.0,23.8,"06:41:44",1
"23/07/20","07:00",0.0,23.9,89.5,1002.4,326.6,1.6,2.8,328.1,0.05,22.1,24.1,"06:50:16",1
"23/07/20","07:10",0.0,24.0,88.5,1002.4,330.6,1.7,2.5,331.0,0.06,22.0,24.0,"07:01:52",1
"23/07/20","07:20",0.0,24.4,86.9,1002.2,308.2,1.3,2.7,328.4,0.07,22.1,23.8,"07:14:16",1
"23/07/20","07:30",0.0,24.7,85.2,1002.2,305.4,1.2,2.0,338.2,0.08,22.1,24.1,"07:20:32",1
"23/07/20","07:40",0.0,25.3,83.1,1002.2,305.1,0.8,1.7,343.6,0.10,22.3,24.0,"07:35:44",1
"23/07/20","07:50",0.0,25.5,81.0,1002.2,302.2,1.1,2.0,327.1,0.11,22.0,24.0,"07:49:04",1
"23/07/20","08:00",0.0,25.4,79.5,1002.2,314.7,1.2,2.8,320.1,0.09,21.6,23.9,"07:52:24",1
"23/07/20","08:10",0.0,26.3,77.9,1001.7,324.4,1.5,2.9,291.0,0.29,22.2,24.1,"08:08:00",1
"23/07/20","08:20",0.0,27.6,73.8,1001.7,8.3,1.1,2.9,343.1,0.31,22.5,24.0,"08:18:24",1
"23/07/20","08:30",0.0,28.3,70.0,1001.5,0.7,1.3,3.1,0.7,0.31,22.3,24.0,"08:20:56",1
"23/07/20","08:40",0.0,27.6,68.7,1001.7,351.3,2.0,3.4,25.3,0.22,21.4,24.2,"08:31:12",1
"23/07/20","08:50",0.0,28.0,71.2,1001.5,339.1,1.1,2.5,347.1,0.24,22.3,24.1,"08:40:08",1
"23/07/20","09:00",0.0,27.7,69.6,1001.7,343.9,1.6,4.0,236.0,0.16,21.7,24.1,"08:55:28",1
"23/07/20","09:10",0.0,27.0,72.4,1001.5,346.8,2.2,4.4,2.2,0.16,21.7,24.1,"09:03:36",1
"23/07/20","09:20",0.0,27.9,71.3,1001.2,347.6,2.0,3.7,358.6,0.43,22.3,24.1,"09:11:28",1
"23/07/20","09:30",0.0,28.1,69.9,1001.5,353.1,1.6,4.8,347.0,0.31,22.1,24.1,"09:27:20",1
"23/07/20","09:40",0.0,28.8,65.9,1001.5,6.0,2.0,3.9,341.0,0.44,21.8,24.1,"09:34:24",1
"23/07/20","09:50",0.0,29.4,63.4,1001.9,24.4,1.8,4.0,16.0,0.47,21.8,24.3,"09:48:24",1
"23/07/20","10:00",0.0,30.5,62.4,1002.2,44.8,1.3,4.8,42.0,0.52,22.5,24.4,"09:54:48",1
"23/07/20","10:10",0.0,30.4,60.3,1002.4,355.6,1.7,3.1,359.7,0.51,21.9,24.5,"10:04:16",1
"23/07/20","10:20",0.0,28.8,64.6,1002.4,344.4,2.5,4.3,2.5,0.33,21.5,24.5,"10:12:40",1
"23/07/20","10:30",0.0,29.5,64.1,1001.9,345.7,1.8,4.2,342.7,0.51,22.0,24.4,"10:24:32",1
"23/07/20","10:40",0.0,29.9,61.0,1002.4,349.9,2.1,4.4,354.7,0.53,21.6,24.4,"10:35:36",1
"23/07/20","10:50",0.2,30.8,59.4,1002.2,359.6,1.2,4.0,344.6,0.55,22.0,24.7,"10:48:48",1
"23/07/20","11:00",0.0,31.0,57.5,1002.6,352.4,1.5,4.5,335.7,0.54,21.7,24.7,"10:58:24",1
"23/07/20","11:10",0.0,30.7,57.7,1002.4,0.7,1.6,3.4,351.6,0.44,21.4,25.0,"11:03:44",1
"23/07/20","11:20",0.0,31.1,56.6,1002.6,332.2,1.7,5.0,344.1,0.54,21.5,24.7,"11:19:28",1
"23/07/20","11:30",0.0,30.6,59.3,1002.2,342.4,2.1,3.7,333.7,0.47,21.8,24.8,"11:28:00",1
"23/07/20","11:40",0.0,31.5,56.1,1001.9,310.4,1.3,3.5,339.4,0.59,21.7,25.1,"11:34:32",1
"23/07/20","11:50",0.0,32.5,53.1,1002.2,24.1,1.0,3.4,347.4,0.56,21.8,25.0,"11:40:40",1
"23/07/20","12:00",0.0,31.8,54.3,1001.9,351.9,1.8,3.4,344.4,0.52,21.5,25.0,"11:55:20",1
"23/07/20","12:10",0.0,31.6,53.8,1001.9,353.4,2.2,4.2,338.1,0.54,21.1,25.3,"12:00:02",1
"23/07/20","12:20",0.0,31.9,53.1,1001.9,346.0,1.8,4.9,333.5,0.60,21.2,25.2,"12:19:36",1
"23/07/20","12:30",0.0,32.0,54.5,1001.7,333.2,2.0,4.9,343.1,0.58,21.7,25.2,"12:21:04",1
"23/07/20","12:40",0.0,32.3,51.7,1001.7,351.5,1.8,3.9,346.4,0.60,21.1,25.4,"12:33:36",1
"23/07/20","12:50",0.0,32.2,52.8,1001.5,351.2,2.1,4.1,348.3,0.56,21.4,25.3,"12:42:24",1
"23/07/20","13:00",0.0,32.1,51.5,1001.2,353.1,2.2,4.8,43.1,0.56,20.9,25.6,"12:53:44",1
"23/07/20","13:10",0.0,32.2,53.5,1001.2,340.7,2.3,5.2,343.8,0.58,21.6,25.6,"13:04:56",1
"23/07/20","13:20",0.0,32.1,50.8,1001.7,332.4,2.2,4.7,343.1,0.55,20.7,25.7,"13:12:16",1
"23/07/20","13:30",0.0,32.1,53.1,1001.2,340.2,2.2,4.7,332.4,0.56,21.4,25.7,"13:29:28",1
"23/07/20","13:40",0.0,30.8,54.7,1001.0,353.0,2.5,5.7,327.4,0.25,20.7,25.8,"13:31:28",1
"23/07/20","13:50",0.0,31.9,54.4,1000.8,4.2,2.3,4.9,348.6,0.52,21.6,25.9,"13:47:52",1
"23/07/20","14:00",0.0,32.0,52.4,1001.0,352.1,2.8,7.3,345.4,0.50,21.1,25.8,"13:56:16",1
"23/07/20","14:10",0.0,32.1,49.4,1001.0,7.3,2.2,4.0,45.0,0.44,20.2,25.8,"14:08:48",1
"23/07/20","14:20",0.0,32.2,50.9,1001.0,346.5,2.5,5.1,353.3,0.47,20.8,26.0,"14:14:08",1
"23/07/20","14:30",0.0,32.6,47.8,1001.0,7.9,1.8,5.8,25.5,0.46,20.1,26.0,"14:25:28",1
"23/07/20","14:40",0.0,32.2,49.2,1001.5,343.6,1.8,3.5,344.8,0.30,20.2,26.1,"14:32:32",1
"23/07/20","14:50",0.0,32.2,50.0,1001.2,356.6,2.3,6.4,350.5,0.42,20.5,26.2,"14:48:32",1
"23/07/20","15:00",0.0,32.5,50.4,1001.5,353.5,2.1,4.4,350.8,0.42,20.9,26.2,"14:56:48",1
"23/07/20","15:10",0.0,32.6,50.0,1001.2,10.1,2.0,4.1,356.5,0.39,20.9,26.2,"15:04:24",1
"23/07/20","15:20",0.0,32.2,51.0,1001.2,0.8,2.2,5.0,352.8,0.37,20.8,26.2,"15:10:08",1
"23/07/20","15:30",0.0,32.2,51.6,1001.2,354.9,2.2,4.4,344.2,0.34,21.0,26.2,"15:22:48",1
"23/07/20","15:40",0.0,31.6,51.3,1001.5,349.5,2.7,5.9,9.0,0.32,20.4,26.1,"15:37:20",1
"23/07/20","15:50",0.0,31.8,51.5,1001.2,354.6,2.3,5.1,353.3,0.30,20.6,25.9,"15:42:40",1
"23/07/20","16:00",0.0,31.4,51.5,1001.0,347.5,2.7,4.5,337.4,0.28,20.2,26.2,"15:50:16",1
"23/07/20","16:10",0.0,31.4,51.7,1001.0,349.7,2.3,5.4,331.3,0.25,20.3,26.1,"16:03:28",1
"23/07/20","16:20",0.0,31.6,52.8,1001.0,352.9,2.1,4.5,347.6,0.23,20.8,26.2,"16:17:04",1
"23/07/20","16:30",0.0,31.5,52.7,1001.0,3.4,2.1,4.7,1.5,0.21,20.7,26.2,"16:27:52",1
"23/07/20","16:40",0.0,30.8,53.8,1000.8,351.2,2.6,5.1,347.3,0.19,20.4,26.1,"16:38:24",1
"23/07/20","16:50",0.0,30.4,53.8,1000.5,350.4,2.8,5.8,314.8,0.17,20.0,26.2,"16:43:52",1
"23/07/20","17:00",0.0,30.3,55.2,1000.3,344.2,2.5,5.5,352.5,0.14,20.4,26.3,"16:59:44",1
"23/07/20","17:10",0.0,29.8,54.3,1000.3,342.7,2.8,7.9,344.2,0.11,19.6,26.2,"17:07:24",1
"23/07/20","17:20",0.0,29.8,55.0,1000.3,346.2,2.7,5.7,335.1,0.01,19.8,26.0,"17:14:40",1
"23/07/20","17:30",0.0,29.4,56.6,1000.0,341.7,3.5,7.8,339.0,0.00,19.9,26.2,"17:22:56",1
"23/07/20","17:40",0.0,29.2,56.7,1000.3,340.5,2.7,6.3,335.0,0.00,19.8,25.8,"17:38:08",1
"23/07/20","17:50",0.0,29.0,57.8,1000.0,337.2,2.7,5.6,337.5,0.00,19.9,26.2,"17:41:52",1
"23/07/20","18:00",0.0,28.9,57.2,1000.0,334.6,2.3,5.6,348.0,0.00,19.6,26.0,"17:55:20",1
"23/07/20","18:10",0.0,28.7,57.9,1000.3,337.8,2.5,6.8,344.9,0.00,19.6,25.9,"18:02:48",1
"23/07/20","18:20",0.0,28.4,58.7,1000.3,338.5,1.8,4.7,336.4,0.00,19.6,26.0,"18:11:52",1
"23/07/20","18:30",0.0,28.1,60.4,1000.3,328.0,2.1,4.7,351.8,0.00,19.8,25.7,"18:25:28",1
"23/07/20","18:40",0.0,27.5,62.4,1000.5,330.0,2.5,6.7,329.7,0.00,19.7,25.7,"18:30:24",1
"23/07/20","18:50",0.0,27.1,64.7,1001.0,337.8,1.6,3.4,325.5,0.00,19.9,25.8,"18:45:52",1
"23/07/20","19:00",0.0,26.7,66.4,1001.0,343.3,1.0,1.9,348.1,0.00,20.0,25.7,"18:54:56",1
"23/07/20","19:10",0.0,26.5,67.6,1001.7,332.9,1.2,2.6,347.6,0.00,20.1,25.7,"19:00:48",1
"23/07/20","19:20",0.0,26.1,68.8,1001.5,340.1,1.6,4.3,13.6,0.00,20.0,25.6,"19:14:40",1
"23/07/20","19:30",0.0,25.9,69.7,1001.9,348.6,1.1,2.2,348.4,0.00,20.0,25.5,"19:21:04",1
"23/07/20","19:40",0.0,25.6,71.2,1001.9,322.5,0.5,1.0,289.0,0.00,20.0,25.6,"19:30:56",1
"23/07/20","19:50",0.0,24.6,73.6,1002.2,293.0,0.3,0.9,336.2,0.00,19.6,25.3,"19:48:08",1
"23/07/20","20:00",0.0,24.5,76.4,1002.6,324.0,0.7,1.6,331.7,0.00,20.1,25.6,"19:59:04",1
"23/07/20","20:10",0.0,24.3,78.2,1002.6,330.6,1.5,3.2,334.8,0.00,20.3,25.3,"20:08:08",1
"23/07/20","20:20",0.0,24.4,78.2,1002.9,342.9,1.5,3.4,341.4,0.00,20.4,25.3,"20:10:40",1
"23/07/20","20:30",0.0,24.6,77.9,1003.1,331.9,1.1,2.7,283.0,0.00,20.5,25.2,"20:27:36",1
"23/07/20","20:40",0.0,24.5,77.8,1003.4,331.5,0.7,1.9,356.0,0.00,20.4,25.4,"20:33:20",1
"23/07/20","20:50",0.0,24.3,78.3,1003.4,340.7,1.2,3.1,343.3,0.00,20.3,25.4,"20:43:52",1
"23/07/20","21:00",0.0,24.3,78.8,1003.4,307.8,1.3,2.9,325.9,0.00,20.4,25.2,"20:59:44",1
"23/07/20","21:10",0.0,24.3,78.6,1003.4,315.4,0.8,2.4,349.1,0.00,20.4,25.2,"21:02:08",1
"23/07/20","21:20",0.0,24.0,79.2,1003.8,293.7,0.6,1.4,5.5,0.00,20.2,25.1,"21:15:12",1
"23/07/20","21:30",0.0,24.3,79.1,1003.8,315.3,1.8,4.0,334.6,0.00,20.5,24.9,"21:26:56",1
"23/07/20","21:40",0.0,24.4,78.4,1003.8,330.6,1.6,3.3,340.1,0.00,20.4,25.0,"21:30:16",1
"23/07/20","21:50",0.0,24.3,78.6,1003.6,344.0,1.5,4.2,334.1,0.00,20.4,25.0,"21:47:28",1
"23/07/20","22:00",0.0,24.1,78.8,1003.6,11.3,1.0,2.0,343.7,0.00,20.2,25.1,"21:50:48",1
"23/07/20","22:10",0.0,23.9,79.0,1003.8,344.7,0.8,2.2,316.1,0.00,20.1,24.9,"22:02:08",1
"23/07/20","22:20",0.0,23.7,79.7,1003.8,262.7,0.5,1.4,236.2,0.00,20.0,24.9,"22:18:56",1
"23/07/20","22:30",0.0,23.2,80.3,1003.8,301.9,0.6,1.1,327.7,0.00,19.7,25.0,"22:23:36",1
"23/07/20","22:40",0.0,23.2,81.5,1004.1,288.2,1.0,2.0,245.9,0.00,19.9,24.8,"22:39:20",1
"23/07/20","22:50",0.0,23.1,82.1,1004.1,281.6,0.8,1.6,301.7,0.00,19.9,24.8,"22:48:56",1
"23/07/20","23:00",0.0,23.0,82.6,1004.3,299.9,1.0,1.4,323.7,0.00,19.9,24.5,"22:51:28",1
"23/07/20","23:10",0.0,22.9,83.2,1004.1,306.6,1.1,1.6,324.8,0.00,19.9,24.7,"23:05:04",1
"23/07/20","23:20",0.0,22.8,83.8,1004.3,312.7,1.1,1.6,326.2,0.00,20.0,24.6,"23:19:20",1
"23/07/20","23:30",0.0,22.7,84.3,1004.3,318.3,1.2,2.1,320.0,0.00,20.0,24.7,"23:22:08",1
"23/07/20","23:40",0.0,22.6,84.7,1004.5,331.7,1.1,1.7,320.9,0.00,19.9,24.4,"23:33:12",1
"23/07/20","23:50",0.0,22.4,85.3,1004.8,328.1,0.8,1.6,338.1,0.00,19.9,24.5,"23:48:16",1
"23/07/20","24:00",0.0,22.2,86.1,1005.0,332.5,1.1,1.7,348.3,0.00,19.8,24.3,"23:54:48",1
